| time (UTC) | temp F | wind direction | speed knots | gust knots | rain 1hr in | rain 24hr in | rain mn in | humidity % | barometer mb |
| 20260906082233 | 78 | 185 | 0.0 | 0.0 | 0.00 | 0.00 | 0.00 | 100 | 1013.4 |
| 20260906081733 | 77 | 185 | 0.0 | 0.0 | 0.00 | 0.00 | 0.00 | 100 | 1013.4 |
| 20260906081233 | 78 | 185 | 0.0 | 0.0 | 0.00 | 0.00 | 0.00 | 100 | 1013.4 |
| 20260906080937 | 78 | 185 | 0.0 | 0.0 | 0.00 | 0.00 | 0.00 | 100 | 1013.5 |
| 20260906080733 | 78 | 185 | 0.0 | 0.0 | 0.00 | 0.00 | 0.00 | 100 | 1013.5 |
| 20260906080233 | 78 | 185 | 0.0 | 0.0 | 0.00 | 0.00 | 0.00 | 100 | 1013.4 |
| 20260906075953 | 78 | 185 | 0.0 | 0.0 | 0.00 | 0.00 | 0.00 | 100 | 1013.3 |
| 20260906075733 | 78 | 185 | 0.0 | 0.0 | 0.00 | 0.00 | 0.00 | 100 | 1013.3 |
| 20260906075233 | 78 | 185 | 0.0 | 1.7 | 0.00 | 0.00 | 0.00 | 100 | 1013.4 |
| 20260906074733 | 78 | 220 | 0.9 | 0.9 | 0.00 | 0.00 | 0.00 | 100 | 1013.5 |
| 20260906074233 | 78 | 135 | 0.0 | 0.9 | 0.00 | 0.00 | 0.00 | 100 | 1013.6 |
| 20260906073733 | 78 | 113 | 0.0 | 0.0 | 0.00 | 0.00 | 0.00 | 100 | 1013.6 |
| 20260906073512 | 78 | 113 | 0.0 | 0.0 | 0.00 | 0.00 | 0.00 | 100 | 1013.6 |
| 20260906073233 | 78 | 113 | 0.0 | 0.0 | 0.00 | 0.00 | 0.00 | 100 | 1013.6 |
| 20260906072733 | 78 | 113 | 0.0 | 0.0 | 0.00 | 0.00 | 0.00 | 100 | 1013.8 |
| 20260906072234 | 78 | 113 | 0.0 | 0.0 | 0.00 | 0.00 | 0.00 | 100 | 1013.8 |
| 20260906071734 | 78 | 113 | 0.0 | 0.0 | 0.00 | 0.00 | 0.00 | 100 | 1013.9 |
| 20260906071234 | 78 | 113 | 0.0 | 0.0 | 0.00 | 0.00 | 0.00 | 100 | 1013.9 |
| 20260906070734 | 78 | 113 | 0.0 | 0.0 | 0.00 | 0.00 | 0.00 | 100 | 1013.9 |
| 20260906070234 | 78 | 113 | 0.0 | 0.0 | 0.00 | 0.00 | 0.00 | 100 | 1013.9 |
| 20260906065734 | 78 | 113 | 0.0 | 0.0 | 0.00 | 0.00 | 0.00 | 100 | 1013.9 |
| 20260906065234 | 78 | 113 | 0.0 | 0.0 | 0.00 | 0.00 | 0.00 | 100 | 1014.0 |
| 20260906064734 | 79 | 113 | 0.0 | 0.0 | 0.00 | 0.00 | 0.00 | 100 | 1014.0 |
| 20260906064234 | 79 | 113 | 0.0 | 0.0 | 0.00 | 0.00 | 0.00 | 100 | 1013.9 |
| 20260906063734 | 79 | 113 | 0.0 | 0.0 | 0.00 | 0.00 | 0.00 | 100 | 1014.1 |
| 20260906063234 | 78 | 113 | 0.0 | 0.0 | 0.00 | 0.00 | 0.00 | 100 | 1014.2 |
| 20260906062734 | 79 | 113 | 0.0 | 0.0 | 0.00 | 0.00 | 0.00 | 100 | 1014.4 |
| 20260906062234 | 79 | 113 | 0.0 | 1.7 | 0.00 | 0.00 | 0.00 | 100 | 1014.6 |
| 20260906061941 | 79 | 129 | 0.9 | 1.7 | 0.00 | 0.00 | 0.00 | 100 | 1014.6 |
| 20260906061734 | 79 | 129 | 0.9 | 1.7 | 0.00 | 0.00 | 0.00 | 100 | 1014.6 |
| 20260906061234 | 79 | 156 | 0.9 | 1.7 | 0.00 | 0.00 | 0.00 | 100 | 1014.7 |
| 20260906060734 | 79 | 171 | 0.0 | 0.0 | 0.00 | 0.00 | 0.00 | 100 | 1014.7 |
| 20260906060234 | 79 | 171 | 0.0 | 0.0 | 0.00 | 0.00 | 0.00 | 100 | 1014.7 |
| 20260906055734 | 79 | 171 | 0.0 | 0.0 | 0.00 | 0.00 | 0.00 | 100 | 1014.8 |
| 20260906055234 | 79 | 171 | 0.0 | 0.0 | 0.00 | 0.00 | 0.00 | 100 | 1014.9 |
| 20260906054944 | 79 | 171 | 0.0 | 0.0 | 0.00 | 0.00 | 0.00 | 100 | 1015.0 |
| 20260906054734 | 79 | 171 | 0.0 | 0.0 | 0.00 | 0.00 | 0.00 | 100 | 1015.0 |
| 20260906054234 | 79 | 171 | 0.0 | 0.0 | 0.00 | 0.00 | 0.00 | 100 | 1015.1 |
| 20260906053734 | 79 | 171 | 0.0 | 0.0 | 0.00 | 0.00 | 0.00 | 100 | 1015.2 |
| 20260906053234 | 79 | 171 | 0.0 | 0.0 | 0.00 | 0.00 | 0.00 | 100 | 1015.2 |
| 20260906052734 | 79 | 171 | 0.0 | 0.0 | 0.00 | 0.00 | 0.00 | 100 | 1015.1 |
| 20260906052500 | 79 | 171 | 0.0 | 0.0 | 0.00 | 0.00 | 0.00 | 100 | 1015.1 |
| 20260906052234 | 79 | 171 | 0.0 | 0.0 | 0.00 | 0.00 | 0.00 | 100 | 1015.1 |
| 20260906051734 | 80 | 171 | 0.0 | 0.0 | 0.00 | 0.00 | 0.00 | 100 | 1015.0 |
| 20260906051234 | 80 | 171 | 0.0 | 0.0 | 0.00 | 0.00 | 0.00 | 100 | 1014.9 |
| 20260906050734 | 80 | 171 | 0.0 | 0.0 | 0.00 | 0.00 | 0.00 | 100 | 1015.0 |
| 20260906050500 | 80 | 171 | 0.0 | 0.0 | 0.00 | 0.00 | 0.00 | 100 | 1015.0 |
| 20260906050234 | 80 | 171 | 0.0 | 0.0 | 0.00 | 0.00 | 0.00 | 100 | 1015.0 |
| 20260906045734 | 80 | 171 | 0.0 | 0.0 | 0.00 | 0.00 | 0.00 | 100 | 1015.0 |
| 20260906045234 | 80 | 171 | 0.0 | 0.0 | 0.00 | 0.00 | 0.00 | 100 | 1014.9 |
| 20260906044734 | 80 | 171 | 0.0 | 0.0 | 0.00 | 0.00 | 0.00 | 100 | 1015.0 |
| 20260906044234 | 80 | 171 | 0.0 | 0.0 | 0.00 | 0.00 | 0.00 | 100 | 1015.0 |
| 20260906043734 | 80 | 171 | 0.0 | 1.7 | 0.00 | 0.00 | 0.00 | 100 | 1014.9 |
| 20260906043234 | 80 | 209 | 0.9 | 1.7 | 0.00 | 0.00 | 0.00 | 100 | 1014.9 |
| 20260906042734 | 80 | 187 | 0.9 | 1.7 | 0.00 | 0.00 | 0.00 | 100 | 1015.0 |
| 20260906042234 | 80 | 223 | 0.0 | 0.0 | 0.00 | 0.00 | 0.00 | 100 | 1015.0 |
| 20260906041734 | 81 | 223 | 0.0 | 0.0 | 0.00 | 0.00 | 0.00 | 100 | 1015.2 |
| 20260906041234 | 81 | 223 | 0.0 | 0.0 | 0.00 | 0.00 | 0.00 | 100 | 1015.2 |
| 20260906040734 | 81 | 223 | 0.0 | 0.0 | 0.00 | 0.00 | 0.00 | 100 | 1015.3 |
| 20260906040234 | 81 | 223 | 0.0 | 0.0 | 0.00 | 0.00 | 0.00 | 100 | 1015.5 |
| 20260906040015 | 81 | 223 | 0.0 | 1.7 | 0.00 | 0.00 | 0.00 | 100 | 1015.4 |
| 20260906035734 | 81 | 223 | 0.0 | 1.7 | 0.00 | 0.00 | 0.00 | 100 | 1015.4 |
| 20260906035234 | 81 | 175 | 0.0 | 2.6 | 0.00 | 0.00 | 0.00 | 100 | 1015.5 |
| 20260906034940 | 81 | 158 | 0.0 | 1.7 | 0.00 | 0.00 | 0.00 | 100 | 1015.6 |
| 20260906034734 | 81 | 158 | 0.0 | 1.7 | 0.00 | 0.00 | 0.00 | 100 | 1015.6 |
| 20260906034234 | 81 | 205 | 0.9 | 2.6 | 0.00 | 0.00 | 0.00 | 100 | 1015.7 |
| 20260906033939 | 81 | 78 | 0.0 | 2.6 | 0.00 | 0.00 | 0.00 | 100 | 1015.7 |
| 20260906033734 | 81 | 78 | 0.0 | 2.6 | 0.00 | 0.00 | 0.00 | 100 | 1015.7 |
| 20260906033425 | 81 | 150 | 1.7 | 4.3 | 0.00 | 0.00 | 0.00 | 100 | 1015.7 |
| 20260906033234 | 81 | 150 | 1.7 | 4.3 | 0.00 | 0.00 | 0.00 | 100 | 1015.7 |
| 20260906032734 | 82 | 178 | 0.0 | 1.7 | 0.00 | 0.00 | 0.00 | 100 | 1015.7 |
| 20260906032438 | 82 | 151 | 0.0 | 1.7 | 0.00 | 0.00 | 0.00 | 100 | 1015.6 |
| 20260906032235 | 82 | 151 | 0.0 | 1.7 | 0.00 | 0.00 | 0.00 | 100 | 1015.6 |
| 20260906031735 | 82 | 151 | 1.7 | 2.6 | 0.00 | 0.00 | 0.00 | 100 | 1015.6 |
| 20260906031235 | 82 | 168 | 1.7 | 3.5 | 0.00 | 0.00 | 0.00 | 100 | 1015.6 |
| 20260906030850 | 82 | 146 | 1.7 | 3.5 | 0.00 | 0.00 | 0.00 | 100 | 1015.6 |
| 20260906030735 | 82 | 146 | 1.7 | 3.5 | 0.00 | 0.00 | 0.00 | 100 | 1015.6 |
| 20260906030235 | 81 | 146 | 1.7 | 4.3 | 0.00 | 0.00 | 0.00 | 100 | 1015.6 |
| 20260906025735 | 81 | 94 | 2.6 | 5.2 | 0.00 | 0.00 | 0.00 | 100 | 1015.6 |
| 20260906025405 | 81 | 344 | 0.0 | 0.0 | 0.00 | 0.00 | 0.00 | 100 | 1015.6 |
| 20260906025235 | 81 | 344 | 0.0 | 0.0 | 0.00 | 0.00 | 0.00 | 100 | 1015.6 |
| 20260906024938 | 81 | 344 | 0.0 | 0.0 | 0.00 | 0.00 | 0.00 | 100 | 1015.6 |
| 20260906024735 | 81 | 344 | 0.0 | 0.0 | 0.00 | 0.00 | 0.00 | 100 | 1015.6 |
| 20260906024235 | 82 | 344 | 0.0 | 0.0 | 0.00 | 0.00 | 0.00 | 100 | 1015.6 |
| 20260906023735 | 82 | 344 | 0.0 | 0.0 | 0.00 | 0.00 | 0.00 | 100 | 1015.7 |
| 20260906023443 | 82 | 344 | 0.0 | 0.0 | 0.00 | 0.00 | 0.00 | 100 | 1015.7 |
| 20260906023235 | 82 | 344 | 0.0 | 0.0 | 0.00 | 0.00 | 0.00 | 100 | 1015.7 |
| 20260906022943 | 82 | 344 | 0.0 | 0.0 | 0.00 | 0.00 | 0.00 | 100 | 1015.7 |
| 20260906022735 | 82 | 344 | 0.0 | 0.0 | 0.00 | 0.00 | 0.00 | 100 | 1015.7 |
| 20260906022501 | 82 | 344 | 0.0 | 0.0 | 0.00 | 0.00 | 0.00 | 100 | 1015.7 |
| 20260906022235 | 82 | 344 | 0.0 | 0.0 | 0.00 | 0.00 | 0.00 | 100 | 1015.7 |
| 20260906021735 | 82 | 344 | 0.0 | 0.0 | 0.00 | 0.00 | 0.00 | 100 | 1015.8 |
| 20260906021523 | 82 | 344 | 0.0 | 0.0 | 0.00 | 0.00 | 0.00 | 100 | 1015.9 |
| 20260906021235 | 82 | 344 | 0.0 | 0.0 | 0.00 | 0.00 | 0.00 | 100 | 1015.8 |
| 20260906021011 | 82 | 344 | 0.0 | 0.0 | 0.00 | 0.00 | 0.00 | 100 | 1015.9 |
| 20260906020735 | 82 | 344 | 0.0 | 0.0 | 0.00 | 0.00 | 0.00 | 100 | 1015.9 |
| 20260906020505 | 82 | 344 | 0.0 | 0.0 | 0.00 | 0.00 | 0.00 | 100 | 1015.9 |
| 20260906020235 | 82 | 344 | 0.0 | 0.0 | 0.00 | 0.00 | 0.00 | 100 | 1015.9 |
| 20260906015946 | 82 | 344 | 0.0 | 0.0 | 0.00 | 0.00 | 0.00 | 100 | 1015.8 |
| 20260906015735 | 82 | 344 | 0.0 | 0.0 | 0.00 | 0.00 | 0.00 | 100 | 1015.8 |
| 20260906015235 | 82 | 344 | 0.0 | 0.0 | 0.00 | 0.00 | 0.00 | 100 | 1015.7 |
| 20260906015015 | 82 | 344 | 0.0 | 0.0 | 0.00 | 0.00 | 0.00 | 100 | 1015.7 |
| 20260906014735 | 82 | 344 | 0.0 | 0.0 | 0.00 | 0.00 | 0.00 | 100 | 1015.7 |
| 20260906014235 | 82 | 344 | 0.0 | 0.0 | 0.00 | 0.00 | 0.00 | 100 | 1015.6 |
| 20260906014018 | 82 | 344 | 0.0 | 0.0 | 0.00 | 0.00 | 0.00 | 100 | 1015.5 |
| 20260906013735 | 82 | 344 | 0.0 | 0.0 | 0.00 | 0.00 | 0.00 | 100 | 1015.5 |
| 20260906013555 | 82 | 344 | 0.0 | 0.0 | 0.00 | 0.00 | 0.00 | 100 | 1015.5 |
| 20260906013235 | 82 | 344 | 0.0 | 0.0 | 0.00 | 0.00 | 0.00 | 100 | 1015.5 |
| 20260906012735 | 83 | 344 | 0.0 | 0.0 | 0.00 | 0.00 | 0.00 | 100 | 1015.5 |
| 20260906012235 | 83 | 344 | 0.0 | 0.0 | 0.00 | 0.00 | 0.00 | 100 | 1015.4 |
| 20260906011959 | 83 | 344 | 0.0 | 0.0 | 0.00 | 0.00 | 0.00 | 100 | 1015.2 |
| 20260906011735 | 83 | 344 | 0.0 | 0.0 | 0.00 | 0.00 | 0.00 | 100 | 1015.2 |
| 20260906011501 | 83 | 344 | 0.0 | 0.0 | 0.00 | 0.00 | 0.00 | 100 | 1015.1 |
| 20260906011235 | 83 | 344 | 0.0 | 0.0 | 0.00 | 0.00 | 0.00 | 100 | 1015.1 |
| 20260906010735 | 83 | 344 | 0.0 | 0.0 | 0.00 | 0.00 | 0.00 | 100 | 1015.2 |
| 20260906010235 | 83 | 344 | 0.0 | 0.0 | 0.00 | 0.00 | 0.00 | 100 | 1015.1 |
| 20260906005735 | 83 | 344 | 0.0 | 0.0 | 0.00 | 0.00 | 0.00 | 100 | 1015.0 |
| 20260906005235 | 84 | 344 | 0.0 | 0.0 | 0.00 | 0.00 | 0.00 | 100 | 1014.9 |
| 20260906004735 | 84 | 344 | 0.0 | 0.0 | 0.00 | 0.00 | 0.00 | 100 | 1014.9 |
| 20260906004235 | 84 | 344 | 0.0 | 0.0 | 0.00 | 0.00 | 0.00 | 100 | 1015.0 |
| 20260906003735 | 84 | 344 | 0.0 | 0.0 | 0.00 | 0.00 | 0.00 | 100 | 1014.9 |
| 20260906003235 | 84 | 344 | 0.0 | 0.0 | 0.00 | 0.00 | 0.00 | 100 | 1015.0 |
| 20260906002735 | 84 | 344 | 0.0 | 0.0 | 0.00 | 0.00 | 0.00 | 100 | 1015.2 |
| 20260906002235 | 85 | 344 | 0.0 | 0.0 | 0.00 | 0.00 | 0.00 | 100 | 1015.0 |
| 20260906001958 | 85 | 344 | 0.0 | 0.0 | 0.00 | 0.00 | 0.00 | 100 | 1015.1 |
| 20260906001735 | 85 | 344 | 0.0 | 0.0 | 0.00 | 0.00 | 0.00 | 100 | 1015.1 |
| 20260906001235 | 85 | 344 | 0.0 | 0.0 | 0.00 | 0.00 | 0.00 | 100 | 1015.1 |
| 20260906000735 | 85 | 344 | 0.0 | 0.0 | 0.00 | 0.00 | 0.00 | 100 | 1015.1 |
| 20260906000235 | 86 | 344 | 0.0 | 0.0 | 0.00 | 0.00 | 0.00 | 100 | 1015.0 |
| 20260905235735 | 86 | 344 | 0.0 | 1.7 | 0.00 | 0.00 | 0.00 | 100 | 1015.0 |
| 20260905235235 | 86 | 268 | 0.0 | 2.6 | 0.00 | 0.00 | 0.00 | 100 | 1015.0 |
| 20260905234735 | 87 | 313 | 0.9 | 2.6 | 0.00 | 0.00 | 0.00 | 100 | 1015.0 |
| 20260905234235 | 87 | 354 | 0.0 | 3.5 | 0.00 | 0.00 | 0.00 | 100 | 1014.8 |
| 20260905233928 | 87 | 310 | 0.0 | 2.6 | 0.00 | 0.00 | 0.00 | 100 | 1014.7 |
| 20260905233735 | 87 | 310 | 0.0 | 2.6 | 0.00 | 0.00 | 0.00 | 100 | 1014.7 |
| 20260905233235 | 87 | 289 | 0.9 | 5.2 | 0.00 | 0.00 | 0.00 | 100 | 1014.7 |
| 20260905232736 | 88 | 352 | 4.3 | 5.2 | 0.00 | 0.00 | 0.00 | 100 | 1014.6 |
| 20260905232236 | 88 | 345 | 2.6 | 7.0 | 0.00 | 0.00 | 0.00 | 100 | 1014.6 |
| 20260905231736 | 88 | 358 | 3.5 | 7.0 | 0.00 | 0.00 | 0.00 | 100 | 1014.6 |
| 20260905231236 | 88 | 336 | 6.1 | 6.1 | 0.00 | 0.00 | 0.00 | 100 | 1014.7 |
| 20260905230736 | 89 | 323 | 2.6 | 5.2 | 0.00 | 0.00 | 0.00 | 100 | 1014.8 |
| 20260905230236 | 89 | 354 | 0.9 | 8.7 | 0.00 | 0.00 | 0.00 | 100 | 1014.9 |
| 20260905225736 | 89 | 281 | 1.7 | 7.8 | 0.00 | 0.00 | 0.00 | 100 | 1014.9 |
| 20260905225236 | 89 | 338 | 3.5 | 8.7 | 0.00 | 0.00 | 0.00 | 100 | 1014.8 |
| 20260905224736 | 90 | 357 | 5.2 | 8.7 | 0.00 | 0.00 | 0.00 | 100 | 1014.9 |
| 20260905224520 | 90 | 348 | 3.5 | 9.6 | 0.00 | 0.00 | 0.00 | 100 | 1014.8 |
| 20260905224236 | 90 | 348 | 3.5 | 9.6 | 0.00 | 0.00 | 0.00 | 100 | 1014.8 |
| 20260905223736 | 90 | 330 | 4.3 | 8.7 | 0.00 | 0.00 | 0.00 | 100 | 1014.6 |
| 20260905223451 | 90 | 327 | 5.2 | 6.1 | 0.00 | 0.00 | 0.00 | 100 | 1014.7 |
| 20260905223236 | 90 | 327 | 5.2 | 6.1 | 0.00 | 0.00 | 0.00 | 100 | 1014.7 |
| 20260905222736 | 90 | 326 | 6.1 | 8.7 | 0.00 | 0.00 | 0.00 | 100 | 1014.7 |
| 20260905222455 | 90 | 19 | 4.3 | 9.6 | 0.00 | 0.00 | 0.00 | 100 | 1014.6 |
| 20260905222236 | 90 | 19 | 4.3 | 9.6 | 0.00 | 0.00 | 0.00 | 100 | 1014.6 |
| 20260905221736 | 91 | 341 | 7.0 | 9.6 | 0.00 | 0.00 | 0.00 | 100 | 1014.6 |
| 20260905221236 | 91 | 358 | 7.0 | 11.3 | 0.00 | 0.00 | 0.00 | 100 | 1014.5 |
| 20260905220736 | 91 | 338 | 7.8 | 12.2 | 0.00 | 0.00 | 0.00 | 100 | 1014.6 |
| 20260905220546 | 91 | 334 | 2.6 | 8.7 | 0.00 | 0.00 | 0.00 | 100 | 1014.6 |
| 20260905220236 | 91 | 334 | 2.6 | 8.7 | 0.00 | 0.00 | 0.00 | 100 | 1014.6 |
| 20260905215736 | 92 | 15 | 1.7 | 12.2 | 0.00 | 0.00 | 0.00 | 100 | 1014.5 |
| 20260905215236 | 92 | 334 | 5.2 | 8.7 | 0.00 | 0.00 | 0.00 | 100 | 1014.4 |
| 20260905215008 | 92 | 312 | 6.1 | 7.8 | 0.00 | 0.00 | 0.00 | 100 | 1014.4 |
| 20260905214736 | 92 | 312 | 6.1 | 7.8 | 0.00 | 0.00 | 0.00 | 100 | 1014.4 |
| 20260905214236 | 92 | 337 | 4.3 | 7.8 | 0.00 | 0.00 | 0.00 | 100 | 1014.4 |
| 20260905213736 | 93 | 14 | 1.7 | 10.4 | 0.00 | 0.00 | 0.00 | 100 | 1014.4 |
| 20260905213236 | 93 | 317 | 5.2 | 9.6 | 0.00 | 0.00 | 0.00 | 100 | 1014.2 |
| 20260905212736 | 94 | 330 | 7.0 | 13.0 | 0.00 | 0.00 | 0.00 | 100 | 1014.2 |
| 20260905212236 | 94 | 315 | 4.3 | 13.9 | 0.00 | 0.00 | 0.00 | 100 | 1014.2 |
| 20260905212029 | 94 | 303 | 7.8 | 7.8 | 0.00 | 0.00 | 0.00 | 100 | 1014.3 |
| 20260905211736 | 94 | 303 | 7.8 | 7.8 | 0.00 | 0.00 | 0.00 | 100 | 1014.3 |
| 20260905211236 | 94 | 331 | 6.1 | 9.6 | 0.00 | 0.00 | 0.00 | 100 | 1014.3 |
| 20260905210736 | 94 | 295 | 3.5 | 7.8 | 0.00 | 0.00 | 0.00 | 100 | 1014.4 |
| 20260905210236 | 94 | 319 | 3.5 | 13.0 | 0.00 | 0.00 | 0.00 | 100 | 1014.4 |
| 20260905210040 | 94 | 286 | 7.8 | 11.3 | 0.00 | 0.00 | 0.00 | 100 | 1014.4 |
| 20260905205737 | 94 | 286 | 7.8 | 11.3 | 0.00 | 0.00 | 0.00 | 100 | 1014.4 |
| 20260905205236 | 94 | 299 | 4.3 | 10.4 | 0.00 | 0.00 | 0.00 | 100 | 1014.4 |
| 20260905204736 | 94 | 279 | 2.6 | 8.7 | 0.00 | 0.00 | 0.00 | 100 | 1014.3 |
| 20260905204236 | 94 | 333 | 6.1 | 9.6 | 0.00 | 0.00 | 0.00 | 100 | 1014.3 |
| 20260905203736 | 94 | 293 | 4.3 | 10.4 | 0.00 | 0.00 | 0.00 | 100 | 1014.3 |
| 20260905203236 | 94 | 309 | 4.3 | 12.2 | 0.00 | 0.00 | 0.00 | 100 | 1014.3 |
| 20260905203125 | 94 | 309 | 7.0 | 12.2 | 0.00 | 0.00 | 0.00 | 100 | 1014.1 |
| 20260905202736 | 94 | 309 | 7.0 | 12.2 | 0.00 | 0.00 | 0.00 | 100 | 1014.1 |
| 20260905202236 | 95 | 313 | 12.2 | 12.2 | 0.00 | 0.00 | 0.00 | 100 | 1014.2 |
| 20260905201736 | 95 | 254 | 1.7 | 11.3 | 0.00 | 0.00 | 0.00 | 100 | 1014.2 |
| 20260905201236 | 95 | 295 | 3.5 | 8.7 | 0.00 | 0.00 | 0.00 | 100 | 1014.2 |
| 20260905201028 | 95 | 9 | 3.5 | 12.2 | 0.00 | 0.00 | 0.00 | 100 | 1014.2 |
| 20260905200736 | 95 | 9 | 3.5 | 12.2 | 0.00 | 0.00 | 0.00 | 100 | 1014.2 |
| 20260905200627 | 96 | 298 | 9.6 | 13.0 | 0.00 | 0.00 | 0.00 | 100 | 1014.3 |
| 20260905200236 | 96 | 298 | 9.6 | 13.0 | 0.00 | 0.00 | 0.00 | 100 | 1014.3 |
| 20260905200107 | 96 | 305 | 3.5 | 9.6 | 0.00 | 0.00 | 0.00 | 100 | 1014.3 |
| 20260905195736 | 96 | 305 | 3.5 | 9.6 | 0.00 | 0.00 | 0.00 | 100 | 1014.3 |
| 20260905195624 | 96 | 270 | 5.2 | 10.4 | 0.00 | 0.00 | 0.00 | 100 | 1014.4 |
| 20260905195236 | 96 | 270 | 5.2 | 10.4 | 0.00 | 0.00 | 0.00 | 100 | 1014.4 |
| 20260905195141 | 96 | 250 | 2.6 | 11.3 | 0.00 | 0.00 | 0.00 | 100 | 1014.4 |
| 20260905194736 | 96 | 250 | 2.6 | 11.3 | 0.00 | 0.00 | 0.00 | 100 | 1014.4 |
| 20260905194236 | 96 | 281 | 7.0 | 7.0 | 0.00 | 0.00 | 0.00 | 100 | 1014.4 |
| 20260905193736 | 97 | 336 | 5.2 | 11.3 | 0.00 | 0.00 | 0.00 | 100 | 1014.5 |
| 20260905193612 | 97 | 310 | 7.8 | 10.4 | 0.00 | 0.00 | 0.00 | 100 | 1014.6 |
| 20260905193236 | 97 | 310 | 7.8 | 10.4 | 0.00 | 0.00 | 0.00 | 100 | 1014.6 |
| 20260905193117 | 97 | 12 | 5.2 | 10.4 | 0.00 | 0.00 | 0.00 | 100 | 1014.6 |
| 20260905192737 | 97 | 12 | 5.2 | 10.4 | 0.00 | 0.00 | 0.00 | 100 | 1014.6 |
| 20260905192507 | 97 | 293 | 2.6 | 10.4 | 0.00 | 0.00 | 0.00 | 100 | 1014.7 |
| 20260905192237 | 97 | 293 | 2.6 | 10.4 | 0.00 | 0.00 | 0.00 | 100 | 1014.7 |
| 20260905192114 | 98 | 270 | 9.6 | 12.2 | 0.00 | 0.00 | 0.00 | 100 | 1014.9 |
| 20260905191737 | 98 | 270 | 9.6 | 12.2 | 0.00 | 0.00 | 0.00 | 100 | 1014.9 |
| 20260905191237 | 98 | 285 | 10.4 | 10.4 | 0.00 | 0.00 | 0.00 | 100 | 1014.9 |
| 20260905191147 | 99 | 274 | 4.3 | 12.2 | 0.00 | 0.00 | 0.00 | 100 | 1014.9 |
| 20260905190737 | 99 | 274 | 4.3 | 12.2 | 0.00 | 0.00 | 0.00 | 100 | 1014.9 |
| 20260905190628 | 99 | 322 | 7.0 | 9.6 | 0.00 | 0.00 | 0.00 | 100 | 1014.9 |
| 20260905190237 | 99 | 322 | 7.0 | 9.6 | 0.00 | 0.00 | 0.00 | 100 | 1014.9 |
| 20260905190016 | 99 | 270 | 4.3 | 8.7 | 0.00 | 0.00 | 0.00 | 100 | 1015.0 |
| 20260905185737 | 99 | 270 | 4.3 | 8.7 | 0.00 | 0.00 | 0.00 | 100 | 1015.0 |
| 20260905185657 | 100 | 340 | 6.1 | 9.6 | 0.00 | 0.00 | 0.00 | 100 | 1015.0 |
| 20260905185243 | 100 | 347 | 7.8 | 7.8 | 0.00 | 0.00 | 0.00 | 100 | 1015.1 |
| 20260905185237 | 100 | 340 | 6.1 | 9.6 | 0.00 | 0.00 | 0.00 | 100 | 1015.0 |
| 20260905184737 | 100 | 347 | 7.8 | 7.8 | 0.00 | 0.00 | 0.00 | 100 | 1015.1 |
| 20260905184237 | 101 | 322 | 4.3 | 11.3 | 0.00 | 0.00 | 0.00 | 100 | 1015.1 |
| 20260905183737 | 101 | 324 | 2.6 | 9.6 | 0.00 | 0.00 | 0.00 | 100 | 1015.0 |
| 20260905183258 | 104 | 306 | 3.5 | 9.6 | 0.00 | 0.00 | 0.00 | 100 | 1015.1 |
| 20260905183237 | 102 | 288 | 4.3 | 9.6 | 0.00 | 0.00 | 0.00 | 100 | 1015.0 |
| 20260905182737 | 104 | 306 | 3.5 | 9.6 | 0.00 | 0.00 | 0.00 | 100 | 1015.1 |
| 20260905182619 | 106 | 284 | 1.7 | 9.6 | 0.00 | 0.00 | 0.00 | 100 | 1015.1 |
| 20260905182237 | 106 | 284 | 1.7 | 9.6 | 0.00 | 0.00 | 0.00 | 100 | 1015.1 |
| 20260905182012 | 109 | 299 | 4.3 | 9.6 | 0.00 | 0.00 | 0.00 | 100 | 1015.3 |
| 20260905181737 | 109 | 299 | 4.3 | 9.6 | 0.00 | 0.00 | 0.00 | 100 | 1015.3 |
| 20260905181530 | 108 | 322 | 5.2 | 12.2 | 0.00 | 0.00 | 0.00 | 100 | 1015.3 |
| 20260905181237 | 108 | 322 | 5.2 | 12.2 | 0.00 | 0.00 | 0.00 | 100 | 1015.3 |
| 20260905181111 | 117 | 258 | 2.6 | 12.2 | 0.00 | 0.00 | 0.00 | 100 | 1015.3 |
| 20260905180737 | 117 | 258 | 2.6 | 12.2 | 0.00 | 0.00 | 0.00 | 100 | 1015.3 |
| 20260905180638 | 120 | 241 | 7.8 | 7.8 | 0.00 | 0.00 | 0.00 | 100 | 1015.2 |
| 20260905180237 | 120 | 241 | 7.8 | 7.8 | 0.00 | 0.00 | 0.00 | 100 | 1015.2 |
| 20260905175737 | 119 | 300 | 4.3 | 10.4 | 0.00 | 0.00 | 0.00 | 100 | 1015.4 |
| 20260905175529 | 114 | 267 | 2.6 | 8.7 | 0.00 | 0.00 | 0.00 | 100 | 1015.4 |
| 20260905175237 | 114 | 267 | 2.6 | 8.7 | 0.00 | 0.00 | 0.00 | 100 | 1015.4 |
| 20260905174737 | 114 | 253 | 7.0 | 9.6 | 0.00 | 0.00 | 0.00 | 100 | 1015.4 |
| 20260905174237 | 123 | 277 | 3.5 | 5.2 | 0.00 | 0.00 | 0.00 | 100 | 1015.3 |
| 20260905174027 | 126 | 239 | 4.3 | 8.7 | 0.00 | 0.00 | 0.00 | 100 | 1015.5 |
| 20260905173737 | 126 | 239 | 4.3 | 8.7 | 0.00 | 0.00 | 0.00 | 100 | 1015.5 |
| 20260905173531 | 128 | 258 | 7.0 | 7.8 | 0.00 | 0.00 | 0.00 | 100 | 1015.6 |
| 20260905173237 | 128 | 258 | 7.0 | 7.8 | 0.00 | 0.00 | 0.00 | 100 | 1015.6 |
| 20260905172737 | 129 | 337 | 0.0 | 7.0 | 0.00 | 0.00 | 0.00 | 100 | 1015.6 |
| 20260905172635 | 128 | 260 | 2.6 | 7.8 | 0.00 | 0.00 | 0.00 | 100 | 1015.7 |
| 20260905172237 | 128 | 260 | 2.6 | 7.8 | 0.00 | 0.00 | 0.00 | 100 | 1015.7 |
| 20260905171737 | 126 | 271 | 6.1 | 8.7 | 0.00 | 0.00 | 0.00 | 100 | 1015.8 |
| 20260905171237 | 126 | 274 | 3.5 | 8.7 | 0.00 | 0.00 | 0.00 | 100 | 1016.0 |
| 20260905170941 | 119 | 222 | 4.3 | 8.7 | 0.00 | 0.00 | 0.00 | 100 | 1016.0 |
| 20260905170737 | 119 | 222 | 4.3 | 8.7 | 0.00 | 0.00 | 0.00 | 100 | 1016.0 |
| 20260905170504 | 126 | 268 | 5.2 | 8.7 | 0.00 | 0.00 | 0.00 | 100 | 1016.2 |
| 20260905170238 | 126 | 268 | 5.2 | 8.7 | 0.00 | 0.00 | 0.00 | 100 | 1016.2 |
| 20260905165737 | 123 | 286 | 4.3 | 8.7 | 0.00 | 0.00 | 0.00 | 100 | 1016.2 |
| 20260905165629 | 116 | 279 | 0.0 | 7.8 | 0.00 | 0.00 | 0.00 | 100 | 1016.2 |
| 20260905165237 | 116 | 279 | 0.0 | 7.8 | 0.00 | 0.00 | 0.00 | 100 | 1016.2 |
| 20260905165012 | 124 | 281 | 2.6 | 8.7 | 0.00 | 0.00 | 0.00 | 100 | 1016.2 |
| 20260905165002 | 101 | 135 | 0.0 | 3.5 | 0.00 | 0.00 | 0.00 | 100 | 1016.6 |
| 20260905164737 | 124 | 281 | 2.6 | 8.7 | 0.00 | 0.00 | 0.00 | 100 | 1016.2 |
| 20260905164528 | 119 | 240 | 7.0 | 9.6 | 0.00 | 0.00 | 0.00 | 100 | 1016.4 |
| 20260905164237 | 119 | 240 | 7.0 | 9.6 | 0.00 | 0.00 | 0.00 | 100 | 1016.4 |
| 20260905163957 | 113 | 257 | 1.7 | 6.1 | 0.00 | 0.00 | 0.00 | 100 | 1016.4 |
| 20260905163737 | 113 | 257 | 1.7 | 6.1 | 0.00 | 0.00 | 0.00 | 100 | 1016.4 |
| 20260905163237 | 109 | 244 | 6.1 | 8.7 | 0.00 | 0.00 | 0.00 | 100 | 1016.4 |
| 20260905163041 | 119 | 274 | 0.9 | 7.8 | 0.00 | 0.00 | 0.00 | 100 | 1016.3 |
| 20260905162737 | 119 | 274 | 0.9 | 7.8 | 0.00 | 0.00 | 0.00 | 100 | 1016.3 |
| 20260905162453 | 105 | 312 | 4.3 | 7.0 | 0.00 | 0.00 | 0.00 | 100 | 1016.4 |
| 20260905162237 | 105 | 312 | 4.3 | 7.0 | 0.00 | 0.00 | 0.00 | 100 | 1016.4 |
| 20260905161737 | 106 | 306 | 0.9 | 7.0 | 0.00 | 0.00 | 0.00 | 100 | 1016.4 |
| 20260905161530 | 119 | 286 | 3.5 | 7.8 | 0.00 | 0.00 | 0.00 | 100 | 1016.4 |
| 20260905161237 | 119 | 286 | 3.5 | 7.8 | 0.00 | 0.00 | 0.00 | 100 | 1016.4 |
| 20260905160944 | 120 | 180 | 2.6 | 6.1 | 0.00 | 0.00 | 0.00 | 100 | 1016.5 |
| 20260905160737 | 120 | 180 | 2.6 | 6.1 | 0.00 | 0.00 | 0.00 | 100 | 1016.5 |
| 20260905160611 | 118 | 243 | 4.3 | 7.0 | 0.00 | 0.00 | 0.00 | 100 | 1016.7 |
| 20260905160237 | 118 | 243 | 4.3 | 7.0 | 0.00 | 0.00 | 0.00 | 100 | 1016.7 |
| 20260905160026 | 116 | 286 | 0.0 | 7.8 | 0.00 | 0.00 | 0.00 | 100 | 1016.8 |
| 20260905155737 | 116 | 286 | 0.0 | 7.8 | 0.00 | 0.00 | 0.00 | 100 | 1016.8 |
| 20260905155532 | 113 | 216 | 3.5 | 4.3 | 0.00 | 0.00 | 0.00 | 100 | 1016.7 |
| 20260905155237 | 113 | 216 | 3.5 | 4.3 | 0.00 | 0.00 | 0.00 | 100 | 1016.7 |
| 20260905155029 | 97 | 251 | 3.5 | 8.7 | 0.00 | 0.00 | 0.00 | 100 | 1016.8 |
| 20260905154737 | 97 | 251 | 3.5 | 8.7 | 0.00 | 0.00 | 0.00 | 100 | 1016.8 |
| 20260905154237 | 106 | 244 | 7.8 | 8.7 | 0.00 | 0.00 | 0.00 | 100 | 1016.8 |
| 20260905153737 | 109 | 258 | 0.0 | 0.0 | 0.00 | 0.00 | 0.00 | 100 | 1016.7 |
| 20260905153519 | 99 | 258 | 0.0 | 3.5 | 0.00 | 0.00 | 0.00 | 100 | 1016.7 |
| 20260905153237 | 99 | 258 | 0.0 | 3.5 | 0.00 | 0.00 | 0.00 | 100 | 1016.7 |
| 20260905152738 | 93 | 225 | 0.9 | 6.1 | 0.00 | 0.00 | 0.00 | 100 | 1016.8 |
| 20260905152238 | 94 | 215 | 3.5 | 5.2 | 0.00 | 0.00 | 0.00 | 100 | 1016.8 |
| 20260905152012 | 95 | 270 | 1.7 | 4.3 | 0.00 | 0.00 | 0.00 | 100 | 1016.9 |
| 20260905151738 | 95 | 270 | 1.7 | 4.3 | 0.00 | 0.00 | 0.00 | 100 | 1016.9 |
| 20260905151524 | 97 | 310 | 1.7 | 3.5 | 0.00 | 0.00 | 0.00 | 100 | 1016.9 |
| 20260905151238 | 97 | 310 | 1.7 | 3.5 | 0.00 | 0.00 | 0.00 | 100 | 1016.9 |
| 20260905151027 | 101 | 209 | 1.7 | 3.5 | 0.00 | 0.00 | 0.00 | 100 | 1016.8 |
| 20260905150738 | 101 | 209 | 1.7 | 3.5 | 0.00 | 0.00 | 0.00 | 100 | 1016.8 |
| 20260905150527 | 102 | 208 | 0.9 | 4.3 | 0.00 | 0.00 | 0.00 | 100 | 1016.8 |
| 20260905150238 | 102 | 208 | 0.9 | 4.3 | 0.00 | 0.00 | 0.00 | 100 | 1016.8 |
| 20260905145738 | 97 | 189 | 2.6 | 4.3 | 0.00 | 0.00 | 0.00 | 100 | 1016.8 |
| 20260905145441 | 98 | 270 | 2.6 | 6.1 | 0.00 | 0.00 | 0.00 | 100 | 1016.7 |
| 20260905145238 | 98 | 270 | 2.6 | 6.1 | 0.00 | 0.00 | 0.00 | 100 | 1016.7 |
| 20260905144946 | 101 | 277 | 4.3 | 7.0 | 0.00 | 0.00 | 0.00 | 100 | 1016.7 |
| 20260905144738 | 101 | 277 | 4.3 | 7.0 | 0.00 | 0.00 | 0.00 | 100 | 1016.7 |
| 20260905144238 | 99 | 209 | 6.1 | 7.8 | 0.00 | 0.00 | 0.00 | 100 | 1016.7 |
| 20260905144009 | 98 | 270 | 1.7 | 6.1 | 0.00 | 0.00 | 0.00 | 100 | 1016.6 |
| 20260905143738 | 98 | 270 | 1.7 | 6.1 | 0.00 | 0.00 | 0.00 | 100 | 1016.6 |
| 20260905143238 | 99 | 326 | 2.6 | 5.2 | 0.00 | 0.00 | 0.00 | 100 | 1016.7 |
| 20260905143037 | 100 | 119 | 0.9 | 3.5 | 0.00 | 0.00 | 0.00 | 100 | 1016.7 |
| 20260905142738 | 100 | 119 | 0.9 | 3.5 | 0.00 | 0.00 | 0.00 | 100 | 1016.7 |
| 20260905142613 | 99 | 344 | 0.9 | 3.5 | 0.00 | 0.00 | 0.00 | 100 | 1016.6 |
| 20260905142238 | 99 | 344 | 0.9 | 3.5 | 0.00 | 0.00 | 0.00 | 100 | 1016.6 |
| 20260905142007 | 99 | 258 | 1.7 | 5.2 | 0.00 | 0.00 | 0.00 | 100 | 1016.6 |
| 20260905141738 | 99 | 258 | 1.7 | 5.2 | 0.00 | 0.00 | 0.00 | 100 | 1016.6 |
| 20260905141238 | 100 | 232 | 4.3 | 5.2 | 0.00 | 0.00 | 0.00 | 100 | 1016.6 |
| 20260905141037 | 102 | 244 | 3.5 | 5.2 | 0.00 | 0.00 | 0.00 | 100 | 1016.6 |
| 20260905140738 | 102 | 244 | 3.5 | 5.2 | 0.00 | 0.00 | 0.00 | 100 | 1016.6 |
| 20260905140238 | 102 | 255 | 4.3 | 4.3 | 0.00 | 0.00 | 0.00 | 100 | 1016.6 |
| 20260905140002 | 102 | 160 | 0.0 | 2.6 | 0.00 | 0.00 | 0.00 | 100 | 1016.7 |
| 20260905135738 | 102 | 160 | 0.0 | 2.6 | 0.00 | 0.00 | 0.00 | 100 | 1016.7 |
| 20260905135419 | 103 | 227 | 2.6 | 2.6 | 0.00 | 0.00 | 0.00 | 100 | 1016.6 |
| 20260905135238 | 103 | 227 | 2.6 | 2.6 | 0.00 | 0.00 | 0.00 | 100 | 1016.6 |
| 20260905134950 | 102 | 153 | 0.0 | 2.6 | 0.00 | 0.00 | 0.00 | 100 | 1016.6 |
| 20260905134738 | 102 | 153 | 0.0 | 2.6 | 0.00 | 0.00 | 0.00 | 100 | 1016.6 |
| 20260905134238 | 102 | 92 | 1.7 | 4.3 | 0.00 | 0.00 | 0.00 | 100 | 1016.6 |
| 20260905133905 | 102 | 153 | 4.3 | 4.3 | 0.00 | 0.00 | 0.00 | 100 | 1016.7 |
| 20260905133738 | 102 | 153 | 4.3 | 4.3 | 0.00 | 0.00 | 0.00 | 100 | 1016.7 |
| 20260905133238 | 102 | 156 | 2.6 | 3.5 | 0.00 | 0.00 | 0.00 | 100 | 1016.6 |
| 20260905133033 | 101 | 135 | 0.0 | 3.5 | 0.00 | 0.00 | 0.00 | 100 | 1016.6 |
| 20260905132738 | 101 | 135 | 0.0 | 3.5 | 0.00 | 0.00 | 0.00 | 100 | 1016.6 |
| 20260905132238 | 101 | 171 | 0.0 | 2.6 | 0.00 | 0.00 | 0.00 | 100 | 1016.7 |
| 20260905131738 | 100 | 210 | 1.7 | 3.5 | 0.00 | 0.00 | 0.00 | 100 | 1016.6 |
| 20260905131239 | 100 | 178 | 0.0 | 2.6 | 0.00 | 0.00 | 0.00 | 100 | 1016.6 |
| 20260905130738 | 98 | 230 | 0.9 | 3.5 | 0.00 | 0.00 | 0.00 | 100 | 1016.6 |
| 20260905130713 | 89 | 260 | 3.5 | 4.3 | 0.00 | 0.00 | 0.00 | 100 | 1016.0 |
| 20260905130710 | 89 | 279 | 0.0 | 7.8 | 0.00 | 0.00 | 0.00 | 100 | 1016.0 |
| 20260905130238 | 98 | 180 | 0.0 | 4.3 | 0.00 | 0.00 | 0.00 | 100 | 1016.6 |
| 20260905125738 | 97 | 209 | 1.7 | 4.3 | 0.00 | 0.00 | 0.00 | 100 | 1016.6 |
| 20260905125238 | 95 | 220 | 3.5 | 4.3 | 0.00 | 0.00 | 0.00 | 100 | 1016.6 |
| 20260905125015 | 94 | 268 | 0.0 | 3.5 | 0.00 | 0.00 | 0.00 | 100 | 1016.5 |
| 20260905124738 | 94 | 268 | 0.0 | 3.5 | 0.00 | 0.00 | 0.00 | 100 | 1016.5 |
| 20260905124238 | 89 | 232 | 2.6 | 4.3 | 0.00 | 0.00 | 0.00 | 100 | 1016.5 |
| 20260905123738 | 84 | 215 | 2.6 | 4.3 | 0.00 | 0.00 | 0.00 | 100 | 1016.3 |
| 20260905123651 | 76 | 143 | 0.0 | 0.0 | 0.00 | 0.07 | 0.00 | 100 | 1015.7 |
| 20260905123238 | 84 | 147 | 0.0 | 3.5 | 0.00 | 0.00 | 0.00 | 100 | 1016.3 |
| 20260905122738 | 83 | 147 | 0.0 | 0.0 | 0.00 | 0.00 | 0.00 | 100 | 1016.3 |
| 20260905122238 | 82 | 147 | 0.0 | 0.0 | 0.00 | 0.00 | 0.00 | 100 | 1016.4 |
| 20260905121923 | 82 | 147 | 0.0 | 0.0 | 0.00 | 0.00 | 0.00 | 100 | 1016.5 |
| 20260905121738 | 82 | 147 | 0.0 | 0.0 | 0.00 | 0.00 | 0.00 | 100 | 1016.5 |
| 20260905121238 | 81 | 147 | 0.0 | 0.0 | 0.00 | 0.00 | 0.00 | 100 | 1016.5 |
| 20260905120919 | 80 | 147 | 0.0 | 0.0 | 0.00 | 0.00 | 0.00 | 100 | 1016.4 |
| 20260905120738 | 80 | 147 | 0.0 | 0.0 | 0.00 | 0.00 | 0.00 | 100 | 1016.4 |
| 20260905120238 | 80 | 147 | 0.0 | 0.0 | 0.00 | 0.00 | 0.00 | 100 | 1016.4 |
| 20260905115946 | 79 | 147 | 0.0 | 0.0 | 0.00 | 0.00 | 0.00 | 100 | 1016.5 |
| 20260905115738 | 79 | 147 | 0.0 | 0.0 | 0.00 | 0.00 | 0.00 | 100 | 1016.5 |
| 20260905115238 | 79 | 147 | 0.0 | 0.0 | 0.00 | 0.00 | 0.00 | 100 | 1016.4 |
| 20260905114853 | 78 | 147 | 0.0 | 0.0 | 0.00 | 0.00 | 0.00 | 100 | 1016.2 |
| 20260905114738 | 78 | 147 | 0.0 | 0.0 | 0.00 | 0.00 | 0.00 | 100 | 1016.2 |
| 20260905114238 | 78 | 147 | 0.0 | 0.0 | 0.00 | 0.00 | 0.00 | 100 | 1016.2 |
| 20260905113929 | 78 | 147 | 0.0 | 0.0 | 0.00 | 0.00 | 0.00 | 100 | 1016.1 |
| 20260905113739 | 78 | 147 | 0.0 | 0.0 | 0.00 | 0.00 | 0.00 | 100 | 1016.1 |
| 20260905113506 | 77 | 147 | 0.0 | 0.0 | 0.00 | 0.00 | 0.00 | 100 | 1016.0 |
| 20260905113238 | 77 | 147 | 0.0 | 0.0 | 0.00 | 0.00 | 0.00 | 100 | 1016.0 |
| 20260905112738 | 77 | 147 | 0.0 | 0.0 | 0.00 | 0.00 | 0.00 | 100 | 1016.0 |
| 20260905112239 | 77 | 147 | 0.0 | 0.0 | 0.00 | 0.00 | 0.00 | 100 | 1015.9 |
| 20260905111913 | 77 | 147 | 0.0 | 0.0 | 0.00 | 0.00 | 0.00 | 100 | 1016.0 |
| 20260905111739 | 77 | 147 | 0.0 | 0.0 | 0.00 | 0.00 | 0.00 | 100 | 1016.0 |
| 20260905111239 | 77 | 147 | 0.0 | 0.0 | 0.00 | 0.00 | 0.00 | 100 | 1016.0 |
| 20260905110956 | 77 | 147 | 0.0 | 0.0 | 0.00 | 0.00 | 0.00 | 100 | 1016.0 |
| 20260905110739 | 77 | 147 | 0.0 | 0.0 | 0.00 | 0.00 | 0.00 | 100 | 1016.0 |
| 20260905110239 | 77 | 147 | 0.0 | 0.0 | 0.00 | 0.00 | 0.00 | 100 | 1016.0 |
| 20260905105739 | 77 | 147 | 0.0 | 0.0 | 0.00 | 0.00 | 0.00 | 100 | 1015.9 |
| 20260905105239 | 77 | 147 | 0.0 | 0.0 | 0.00 | 0.00 | 0.00 | 100 | 1015.9 |
| 20260905104930 | 77 | 147 | 0.0 | 0.0 | 0.00 | 0.00 | 0.00 | 100 | 1015.9 |
| 20260905104739 | 77 | 147 | 0.0 | 0.0 | 0.00 | 0.00 | 0.00 | 100 | 1015.9 |
| 20260905104239 | 77 | 147 | 0.0 | 0.0 | 0.00 | 0.00 | 0.00 | 100 | 1015.8 |
| 20260905103939 | 77 | 147 | 0.0 | 0.0 | 0.00 | 0.00 | 0.00 | 100 | 1015.8 |
| 20260905103739 | 77 | 147 | 0.0 | 0.0 | 0.00 | 0.00 | 0.00 | 100 | 1015.8 |
| 20260905103239 | 77 | 147 | 0.0 | 0.0 | 0.00 | 0.00 | 0.00 | 100 | 1015.8 |
| 20260905103112 | 77 | 147 | 0.0 | 0.0 | 0.00 | 0.00 | 0.00 | 100 | 1015.7 |
| 20260905102739 | 77 | 147 | 0.0 | 0.0 | 0.00 | 0.00 | 0.00 | 100 | 1015.7 |
| 20260905102239 | 77 | 147 | 0.0 | 0.0 | 0.00 | 0.00 | 0.00 | 100 | 1015.6 |
| 20260905102005 | 77 | 147 | 0.0 | 0.0 | 0.00 | 0.00 | 0.00 | 100 | 1015.6 |
| 20260905101739 | 77 | 147 | 0.0 | 0.0 | 0.00 | 0.00 | 0.00 | 100 | 1015.6 |
| 20260905101239 | 77 | 147 | 0.0 | 0.0 | 0.00 | 0.00 | 0.00 | 100 | 1015.7 |
| 20260905100931 | 77 | 147 | 0.0 | 0.0 | 0.00 | 0.00 | 0.00 | 100 | 1015.7 |
| 20260905100739 | 77 | 147 | 0.0 | 0.0 | 0.00 | 0.00 | 0.00 | 100 | 1015.7 |
| 20260905100239 | 77 | 147 | 0.0 | 0.0 | 0.00 | 0.00 | 0.00 | 100 | 1015.8 |
| 20260905095957 | 77 | 147 | 0.0 | 0.0 | 0.00 | 0.00 | 0.00 | 100 | 1015.7 |
| 20260905095739 | 77 | 147 | 0.0 | 0.0 | 0.00 | 0.00 | 0.00 | 100 | 1015.7 |
| 20260905095520 | 77 | 147 | 0.0 | 0.0 | 0.00 | 0.00 | 0.00 | 100 | 1015.7 |
| 20260905095239 | 77 | 147 | 0.0 | 0.0 | 0.00 | 0.00 | 0.00 | 100 | 1015.7 |
| 20260905095010 | 77 | 147 | 0.0 | 0.0 | 0.00 | 0.00 | 0.00 | 100 | 1015.6 |
| 20260905094739 | 77 | 147 | 0.0 | 0.0 | 0.00 | 0.00 | 0.00 | 100 | 1015.6 |
| 20260905094508 | 77 | 147 | 0.0 | 0.0 | 0.00 | 0.00 | 0.00 | 100 | 1015.6 |
| 20260905094239 | 77 | 147 | 0.0 | 0.0 | 0.00 | 0.00 | 0.00 | 100 | 1015.6 |
| 20260905093739 | 77 | 147 | 0.0 | 0.0 | 0.00 | 0.00 | 0.00 | 100 | 1015.4 |
| 20260905093543 | 77 | 147 | 0.0 | 0.0 | 0.00 | 0.00 | 0.00 | 100 | 1015.5 |
| 20260905093239 | 77 | 147 | 0.0 | 0.0 | 0.00 | 0.00 | 0.00 | 100 | 1015.5 |
| 20260905092739 | 77 | 147 | 0.0 | 0.0 | 0.00 | 0.00 | 0.00 | 100 | 1015.4 |
| 20260905092239 | 77 | 147 | 0.0 | 0.0 | 0.00 | 0.00 | 0.00 | 100 | 1015.5 |
| 20260905091927 | 78 | 147 | 0.0 | 0.0 | 0.00 | 0.00 | 0.00 | 100 | 1015.5 |
| 20260905091739 | 78 | 147 | 0.0 | 0.0 | 0.00 | 0.00 | 0.00 | 100 | 1015.5 |
| 20260905091532 | 78 | 147 | 0.0 | 0.0 | 0.00 | 0.00 | 0.00 | 100 | 1015.4 |
| 20260905091239 | 78 | 147 | 0.0 | 0.0 | 0.00 | 0.00 | 0.00 | 100 | 1015.4 |
| 20260905091037 | 77 | 147 | 0.0 | 0.0 | 0.00 | 0.00 | 0.00 | 100 | 1015.4 |
| 20260905090739 | 77 | 147 | 0.0 | 0.0 | 0.00 | 0.00 | 0.00 | 100 | 1015.4 |
| 20260905090239 | 78 | 147 | 0.0 | 0.0 | 0.00 | 0.00 | 0.00 | 100 | 1015.4 |
| 20260905085951 | 78 | 147 | 0.0 | 0.0 | 0.00 | 0.00 | 0.00 | 100 | 1015.4 |
| 20260905085739 | 78 | 147 | 0.0 | 0.0 | 0.00 | 0.00 | 0.00 | 100 | 1015.4 |
| 20260905085502 | 78 | 147 | 0.0 | 0.0 | 0.00 | 0.00 | 0.00 | 100 | 1015.5 |
| 20260905085239 | 78 | 147 | 0.0 | 0.0 | 0.00 | 0.00 | 0.00 | 100 | 1015.5 |
| 20260905084739 | 78 | 147 | 0.0 | 0.0 | 0.00 | 0.00 | 0.00 | 100 | 1015.5 |
| 20260905084239 | 78 | 147 | 0.0 | 0.0 | 0.00 | 0.00 | 0.00 | 100 | 1015.4 |
| 20260905083739 | 78 | 147 | 0.0 | 0.0 | 0.00 | 0.00 | 0.00 | 100 | 1015.4 |
| 20260905083239 | 78 | 147 | 0.0 | 0.0 | 0.00 | 0.00 | 0.00 | 100 | 1015.5 |
| 20260905082739 | 78 | 147 | 0.0 | 0.0 | 0.00 | 0.00 | 0.00 | 100 | 1015.6 |